User: anonymous   Login
Location: Unspecified
(0.0000°N, 0.0000°E)
Time: 13:08:16
(UTC+00:00)
Language:

USA 224 - Orbit

View from above orbital plane
View from above orbital plane
View from above satellite
View from above satellite

Ground track
Ground track

The orbit data is extracted from the following two-line orbital elements,

1 37348U 11002A   16202.93451997 0.00013500  00000-0  13100-3 0    07
2 37348  97.8883 313.7729 0528129 213.2889 146.7110 14.78726274    00
Epoch (UTC): 20 July 2016 22:25:42
Eccentricity: 0.0528129
inclination: 97.8883°
perigee height: 263 km
apogee height: 1003 km
right ascension of ascending node: 313.7729°
argument of perigee: 213.2889°
revolutions per day: 14.78726274
mean anomaly at epoch: 146.7110°
orbit number at epoch: 0

The dashed part of the orbit path shows where the satellite is in the earth's shadow,  

DLR